Weather in Beloye

Russia / Republic of Adygea     45°02′53″N   39°39′03″E
temp.,
°C
wind,
m/s
gust,
m/s
humid.,
%
clouds,
%
prec.,
mm/h
press.,
hPa
HPBL,
m
13 june, sun
sun1300:00+16nnw229016 0.0 101328
03:00+15w12913 0.1 101311
06:00+16ssw22861 0.0 101379
09:00+22ssw11633 0.0 1013559
12:00+25nw115515 0.1 10121389
15:00+26w224919 0.5 10122009
18:00+25w225629 0.0 1011586
21:00+19sw238122 0.0 101251
14 june, mon
mon1400:00+16wnw23890 0.0 101233
03:00+15sw229320 0.0 101214
06:00+16sse128825 0.0 101268
09:00+22e247098 0.0 1011531
12:00+26ene4556100 0.0 10111428
15:00+27ene4452100 0.0 10101967
18:00+25ene477140 0.2 1009494
21:00+21ene41082100 0.2 1008195
15 june, tue
tue1500:00+19ene4108869 0.0 1007198
03:00+18ene2584100 0.0 1007129
06:00+18nne4894100 7.5 1008277
09:00+21ene228589 11.7 1009517
12:00+25wnw346538 0.1 10091285
15:00+27wnw455532 0.4 10091559
18:00+25wnw34650 0.0 1009498
21:00+19w22780 0.0 101020
16 june, wed
wed1600:00+18ne118917 0.0 100911
03:00+17wnw359678 1.4 1010121
06:00+17wsw3597100 2.3 1011238
09:00+17wnw489499 3.8 1012460
12:00+20n217645 0.3 1012541
15:00+24ese016231 0.3 10121192
18:00+24ene226623 0.0 10121032
21:00+19ene23850 0.0 101243
17 june, thu
thu1700:00+17ene37930 0.0 1012150
03:00+17ene38976 0.0 1011185
06:00+17ne379416 0.1 1011234
09:00+19ne4589100 2.6 1011455
12:00+20nw3491100 5.6 1012410
15:00+19wnw3493100 10.4 1013267
18:00+21w468463 0.1 1013781
21:00+17w35964 0.1 1015101